Location: Seasalter
(51.3333°N, 1.0167°E)
Time: 13:14:43
(UTC+00:00)

Cosmos 1898 Rocket - Pass Details

Date: 26 September 2023
Orbit: 753 x 781 km, 74.0° (Epoch: 28 November)

Event Time Altitude Azimuth Distance (km) Brightness Sun altitude
Exits shadow 02:50:35 55° 145° (SE) 935 3.8 -26.8°
Maximum altitude 02:51:17 61° 109° (ESE) 888 3.8 -26.7°
Drops below altitude 10° 02:56:32 10° 30° (NNE) 2,347 6.8 -26.0°
Sets 02:58:58 0° 27° (NNE) 3,281 7.7 -25.7°
